Terug naar catalogus

STARLINK-34238

ActiefCommunicatieVLEO
NORAD 65415·PAYLOAD·🇺🇸 United States

Gelanceerd Aug 31, 2025 vanaf Cape Canaveral Space Force Station

Loading…

Volgende Passages (komende 24 uur)

TLE

VersSource: CelesTrak SupGP

Epoch: Sep 14, 2026, 22:59 UTC

1 65415C 25192M   26257.95812500  .00051499  00000+0  15214-2 0  2571
2 65415  53.1588  71.4321 0001243  78.1798  51.3112 15.34366905    17

Volg STARLINK-34238 in realtime met AllMySat

Download on the App Store